�������l�o���
Date,Time,MP-1(��Sv/h),MP-2(��Sv/h),MP-3(��Sv/h),MP-4(��Sv/h),MP-5(��Sv/h),MP-6(��Sv/h),MP-7(��Sv/h),MP-8(��Sv/h),����,����(m/s),���J
2019/01/04,00:00,0.782,1.175,0.822,1.501,1.066,0.449,0.798,0.757,��,3.7,��
2019/01/04,00:10,0.782,1.172,0.822,1.501,1.067,0.450,0.796,0.758,��,4.0,��
2019/01/04,00:20,0.783,1.172,0.822,1.500,1.066,0.449,0.797,0.755,��,4.1,��
2019/01/04,00:30,0.782,1.172,0.824,1.501,1.065,0.450,0.797,0.757,��,4.6,��
2019/01/04,00:40,0.780,1.172,0.821,1.501,1.064,0.451,0.797,0.754,���k��,3.9,��
2019/01/04,00:50,0.783,1.171,0.822,1.500,1.065,0.450,0.798,0.755,��,3.2,��
2019/01/04,01:00,0.783,1.173,0.820,1.500,1.066,0.450,0.796,0.755,���k��,3.1,��
2019/01/04,01:10,0.780,1.171,0.821,1.501,1.066,0.450,0.797,0.754,���k��,3.1,��
2019/01/04,01:20,0.782,1.172,0.821,1.500,1.064,0.450,0.797,0.755,��,3.8,��
2019/01/04,01:30,0.781,1.171,0.820,1.501,1.064,0.450,0.796,0.756,��,4.0,��
2019/01/04,01:40,0.782,1.171,0.820,1.499,1.066,0.450,0.797,0.755,��,3.6,��
2019/01/04,01:50,0.782,1.171,0.821,1.500,1.064,0.449,0.795,0.757,��,3.1,��
2019/01/04,02:00,0.781,1.172,0.822,1.501,1.064,0.449,0.796,0.756,��,3.0,��
2019/01/04,02:10,0.782,1.172,0.821,1.502,1.065,0.449,0.796,0.756,��,3.4,��
2019/01/04,02:20,0.782,1.171,0.823,1.499,1.060,0.450,0.797,0.757,���쐼,3.0,��
2019/01/04,02:30,0.780,1.172,0.819,1.500,1.065,0.450,0.797,0.755,���쐼,3.2,��
2019/01/04,02:40,0.781,1.173,0.822,1.498,1.065,0.449,0.796,0.756,���쐼,3.7,��
2019/01/04,02:50,0.780,1.169,0.820,1.501,1.065,0.450,0.796,0.757,���쐼,3.5,��
2019/01/04,03:00,0.780,1.169,0.821,1.501,1.064,0.450,0.796,0.756,��,2.9,��
2019/01/04,03:10,0.781,1.172,0.821,1.500,1.063,0.448,0.798,0.754,���k��,2.8,��
2019/01/04,03:20,0.781,1.170,0.819,1.502,1.064,0.449,0.796,0.756,��,3.6,��
2019/01/04,03:30,0.782,1.173,0.821,1.500,1.063,0.450,0.797,0.756,��,3.3,��
2019/01/04,03:40,0.781,1.168,0.821,1.501,1.066,0.450,0.796,0.757,��,2.6,��
2019/01/04,03:50,0.782,1.171,0.822,1.502,1.064,0.450,0.796,0.756,��,2.9,��
2019/01/04,04:00,0.781,1.171,0.822,1.500,1.064,0.449,0.795,0.756,��,3.8,��
2019/01/04,04:10,0.780,1.172,0.821,1.500,1.063,0.450,0.797,0.756,��,4.0,��
2019/01/04,04:20,0.782,1.170,0.821,1.499,1.063,0.450,0.795,0.756,��,3.8,��
2019/01/04,04:30,0.781,1.170,0.820,1.502,1.063,0.450,0.795,0.756,��,3.2,��
2019/01/04,04:40,0.780,1.170,0.821,1.501,1.062,0.450,0.795,0.756,��,3.4,��
2019/01/04,04:50,0.782,1.169,0.821,1.500,1.063,0.451,0.795,0.755,���k��,2.3,��
2019/01/04,05:00,0.780,1.170,0.822,1.503,1.063,0.449,0.795,0.756,��,2.0,��
2019/01/04,05:10,0.780,1.171,0.819,1.497,1.060,0.450,0.795,0.754,��,2.0,��
2019/01/04,05:20,0.781,1.171,0.820,1.499,1.064,0.448,0.796,0.756,���k��,1.8,��
2019/01/04,05:30,0.782,1.170,0.819,1.500,1.064,0.451,0.797,0.756,���k��,1.2,��
2019/01/04,05:40,0.780,1.170,0.820,1.497,1.063,0.450,0.795,0.757,���k��,1.2,��
2019/01/04,05:50,0.781,1.170,0.821,1.499,1.062,0.449,0.796,0.756,���k��,1.9,��
2019/01/04,06:00,0.780,1.169,0.822,1.497,1.062,0.449,0.795,0.755,���k��,2.0,��
2019/01/04,06:10,0.780,1.170,0.820,1.499,1.062,0.449,0.795,0.754,���k��,2.0,��
2019/01/04,06:20,0.781,1.169,0.821,1.500,1.062,0.449,0.795,0.756,��,1.4,��
2019/01/04,06:30,0.780,1.168,0.819,1.501,1.060,0.449,0.796,0.755,�쐼,2.5,��
2019/01/04,06:40,0.778,1.170,0.820,1.501,1.061,0.449,0.794,0.755,�쐼,2.3,��
2019/01/04,06:50,0.780,1.168,0.819,1.499,1.062,0.450,0.796,0.754,�쐼,2.5,��
2019/01/04,07:00,0.780,1.167,0.820,1.500,1.063,0.450,0.794,0.755,�쐼,1.5,��
2019/01/04,07:10,0.779,1.169,0.820,1.501,1.062,0.451,0.794,0.755,���쐼,0.8,��
2019/01/04,07:20,0.781,1.170,0.821,1.499,1.062,0.448,0.797,0.757,��쐼,0.6,��
2019/01/04,07:30,0.782,1.174,0.820,1.498,1.062,0.449,0.796,0.755,��,0.6,��
2019/01/04,07:40,0.781,1.170,0.822,1.499,1.063,0.450,0.795,0.757,��쓌,1.1,��
2019/01/04,07:50,0.781,1.172,0.820,1.500,1.063,0.450,0.796,0.757,��쐼,1.2,��
2019/01/04,08:00,0.782,1.170,0.821,1.499,1.065,0.448,0.795,0.757,��쐼,1.5,��
2019/01/04,08:10,0.782,1.172,0.822,1.500,1.061,0.449,0.795,0.755,�쐼,1.9,��
2019/01/04,08:20,0.782,1.170,0.822,1.502,1.063,0.449,0.798,0.757,�쐼,2.0,��
2019/01/04,08:30,0.782,1.173,0.823,1.501,1.064,0.450,0.796,0.756,���쐼,2.5,��
2019/01/04,08:40,0.783,1.172,0.822,1.499,1.065,0.450,0.796,0.756,���쐼,2.6,��
2019/01/04,08:50,0.784,1.171,0.822,1.502,1.064,0.449,0.799,0.756,��,3.4,��
2019/01/04,09:00,0.781,1.173,0.820,1.499,1.065,0.451,0.798,0.756,��,2.8,��
2019/01/04,09:10,0.783,1.173,0.824,1.500,1.065,0.450,0.798,0.755,���k��,3.5,��
2019/01/04,09:20,0.784,1.175,0.822,1.502,1.064,0.450,0.796,0.755,��,3.1,��
2019/01/04,09:30,0.783,1.170,0.823,1.501,1.064,0.451,0.799,0.758,��,3.3,��
2019/01/04,09:40,0.786,1.173,0.823,1.499,1.066,0.452,0.798,0.757,���k��,4.3,��
2019/01/04,09:50,0.782,1.172,0.822,1.500,1.065,0.451,0.799,0.757,���쐼,3.6,��
2019/01/04,10:00,0.784,1.172,0.822,1.502,1.065,0.453,0.798,0.758,��,3.9,��
2019/01/04,10:10,0.783,1.173,0.823,1.502,1.065,0.452,0.798,0.758,���쐼,2.3,��
2019/01/04,10:20,0.784,1.173,0.823,1.501,1.064,0.449,0.797,0.758,��,2.6,��
2019/01/04,10:30,0.784,1.172,0.825,1.503,1.065,0.451,0.798,0.759,�쓌,2.6,��
2019/01/04,10:40,0.784,1.174,0.824,1.503,1.065,0.452,0.798,0.758,�쐼,1.4,��
2019/01/04,10:50,0.785,1.171,0.825,1.502,1.065,0.451,0.799,0.758,�쓌,2.0,��
2019/01/04,11:00,0.785,1.170,0.825,1.500,1.067,0.453,0.798,0.757,��쓌,3.8,��
2019/01/04,11:10,0.783,1.173,0.826,1.503,1.069,0.452,0.798,0.757,��쓌,4.9,��
2019/01/04,11:20,0.783,1.170,0.828,1.502,1.067,0.451,0.798,0.758,��쓌,4.4,��
2019/01/04,11:30,0.787,1.173,0.823,1.504,1.067,0.453,0.798,0.759,��쓌,4.5,��
2019/01/04,11:40,0.786,1.173,0.826,1.501,1.070,0.453,0.797,0.757,�쓌,3.8,��
2019/01/04,11:50,0.786,1.171,0.823,1.506,1.068,0.452,0.797,0.759,�쓌,3.4,��
2019/01/04,12:00,0.787,1.170,0.826,1.505,1.068,0.453,0.797,0.759,��,2.0,��
2019/01/04,12:10,0.786,1.174,0.825,1.504,1.068,0.454,0.800,0.760,�쓌,1.7,��
2019/01/04,12:20,0.786,1.172,0.824,1.504,1.065,0.453,0.799,0.759,��,3.3,��
2019/01/04,12:30,0.786,1.169,0.826,1.506,1.068,0.454,0.798,0.758,��쓌,2.6,��
2019/01/04,12:40,0.786,1.172,0.826,1.504,1.069,0.453,0.799,0.759,���k��,3.8,��
2019/01/04,12:50,0.787,1.174,0.827,1.503,1.072,0.454,0.798,0.758,���k��,3.2,��
2019/01/04,13:00,0.788,1.177,0.829,1.507,1.069,0.452,0.800,0.758,���k��,3.5,��
2019/01/04,13:10,0.789,1.175,0.827,1.502,1.072,0.456,0.799,0.759,��,7.0,��
2019/01/04,13:20,0.788,1.178,0.829,1.502,1.071,0.452,0.800,0.756,��,6.3,��
2019/01/04,13:30,0.788,1.174,0.825,1.504,1.071,0.455,0.799,0.756,��,6.6,��
2019/01/04,13:40,0.788,1.175,0.828,1.506,1.073,0.453,0.799,0.756,���쐼,7.6,��
2019/01/04,13:50,0.786,1.177,0.826,1.503,1.070,0.454,0.800,0.756,��,7.2,��
2019/01/04,14:00,0.786,1.174,0.824,1.506,1.071,0.454,0.801,0.756,���쐼,6.7,��
2019/01/04,14:10,0.788,1.175,0.823,1.505,1.069,0.453,0.799,0.756,���쐼,5.7,��
2019/01/04,14:20,0.786,1.173,0.825,1.505,1.070,0.455,0.801,0.755,��,7.6,��
2019/01/04,14:30,0.787,1.174,0.827,1.506,1.072,0.454,0.800,0.756,��,6.3,��
2019/01/04,14:40,0.786,1.174,0.826,1.506,1.071,0.453,0.802,0.760,��,6.6,��
2019/01/04,14:50,0.786,1.173,0.828,1.505,1.071,0.453,0.802,0.759,��,7.3,��
2019/01/04,15:00,0.787,1.178,0.825,1.504,1.069,0.452,0.802,0.759,���k��,7.2,��
2019/01/04,15:10,0.786,1.175,0.828,1.509,1.071,0.454,0.800,0.758,��,6.7,��
2019/01/04,15:20,0.785,1.175,0.824,1.505,1.069,0.453,0.801,0.759,��,6.7,��
2019/01/04,15:30,0.785,1.173,0.825,1.506,1.070,0.453,0.802,0.758,��,6.3,��
2019/01/04,15:40,0.786,1.175,0.826,1.506,1.070,0.455,0.800,0.760,��,6.9,��
2019/01/04,15:50,0.788,1.176,0.826,1.505,1.072,0.453,0.801,0.759,��,7.6,��
2019/01/04,16:00,0.786,1.174,0.827,1.507,1.068,0.453,0.802,0.759,��,7.5,��
2019/01/04,16:10,0.785,1.175,0.827,1.505,1.070,0.452,0.800,0.759,��,5.8,��
2019/01/04,16:20,0.787,1.177,0.826,1.504,1.071,0.453,0.802,0.759,��,5.2,��
2019/01/04,16:30,0.786,1.174,0.825,1.506,1.069,0.453,0.801,0.758,��,6.7,��
2019/01/04,16:40,0.784,1.175,0.826,1.505,1.069,0.455,0.800,0.759,��,6.1,��
2019/01/04,16:50,0.787,1.173,0.827,1.503,1.069,0.453,0.801,0.758,��,6.2,��
2019/01/04,17:00,0.786,1.177,0.826,1.505,1.068,0.453,0.801,0.758,��,5.1,��
2019/01/04,17:10,0.785,1.174,0.827,1.505,1.069,0.454,0.800,0.758,��,4.3,��
2019/01/04,17:20,0.786,1.177,0.824,1.503,1.069,0.453,0.802,0.757,��,5.9,��
2019/01/04,17:30,0.786,1.174,0.827,1.506,1.070,0.451,0.801,0.758,��,6.4,��
2019/01/04,17:40,0.784,1.175,0.825,1.507,1.071,0.455,0.801,0.759,��,7.8,��
2019/01/04,17:50,0.786,1.176,0.825,1.503,1.070,0.452,0.800,0.757,��,5.4,��
2019/01/04,18:00,0.784,1.175,0.825,1.504,1.069,0.452,0.801,0.757,��,5.2,��
2019/01/04,18:10,0.785,1.176,0.825,1.504,1.067,0.453,0.800,0.758,��,5.6,��
2019/01/04,18:20,0.784,1.176,0.827,1.504,1.070,0.452,0.798,0.757,��,6.2,��
2019/01/04,18:30,0.786,1.175,0.828,1.504,1.067,0.452,0.801,0.760,��,4.3,��
2019/01/04,18:40,0.784,1.175,0.824,1.503,1.068,0.453,0.800,0.757,���쐼,3.2,��
2019/01/04,18:50,0.785,1.175,0.826,1.504,1.069,0.453,0.798,0.758,���쐼,2.9,��
2019/01/04,19:00,0.783,1.175,0.824,1.505,1.068,0.451,0.799,0.757,���쐼,3.4,��
2019/01/04,19:10,0.785,1.175,0.825,1.504,1.069,0.452,0.800,0.758,���쐼,3.4,��
2019/01/04,19:20,0.784,1.176,0.825,1.504,1.068,0.451,0.799,0.758,��,3.7,��
2019/01/04,19:30,0.785,1.175,0.825,1.504,1.069,0.453,0.799,0.757,��,3.8,��
2019/01/04,19:40,0.785,1.175,0.824,1.504,1.068,0.454,0.798,0.759,��,3.8,��
2019/01/04,19:50,0.784,1.176,0.825,1.503,1.070,0.453,0.799,0.756,��,3.6,��
2019/01/04,20:00,0.784,1.176,0.823,1.505,1.067,0.453,0.800,0.756,��,4.4,��
2019/01/04,20:10,0.785,1.177,0.824,1.504,1.068,0.452,0.797,0.757,��,5.5,��
2019/01/04,20:20,0.786,1.174,0.825,1.504,1.068,0.453,0.798,0.757,���쐼,5.3,��
2019/01/04,20:30,0.786,1.176,0.825,1.503,1.066,0.452,0.798,0.756,���쐼,5.1,��
2019/01/04,20:40,0.784,1.174,0.824,1.503,1.070,0.453,0.799,0.757,���쐼,5.8,��
2019/01/04,20:50,0.784,1.175,0.824,1.503,1.070,0.453,0.800,0.758,���쐼,7.3,��
2019/01/04,21:00,0.785,1.175,0.826,1.504,1.070,0.453,0.799,0.760,���쐼,8.7,��
2019/01/04,21:10,0.783,1.174,0.825,1.505,1.068,0.454,0.798,0.758,���쐼,9.2,��
2019/01/04,21:20,0.787,1.177,0.825,1.504,1.067,0.452,0.800,0.757,�쐼,8.1,��
2019/01/04,21:30,0.785,1.175,0.825,1.503,1.068,0.453,0.801,0.757,���쐼,7.6,��
2019/01/04,21:40,0.784,1.173,0.824,1.503,1.068,0.452,0.800,0.757,�쐼,7.5,��
2019/01/04,21:50,0.785,1.174,0.823,1.505,1.069,0.452,0.800,0.758,���쐼,7.5,��
2019/01/04,22:00,0.785,1.175,0.824,1.503,1.067,0.453,0.801,0.759,���쐼,6.8,��
2019/01/04,22:10,0.785,1.175,0.826,1.507,1.069,0.451,0.800,0.757,���쐼,7.1,��
2019/01/04,22:20,0.785,1.174,0.827,1.504,1.068,0.454,0.799,0.758,�쐼,7.4,��
2019/01/04,22:30,0.786,1.176,0.825,1.503,1.068,0.453,0.798,0.758,���쐼,7.6,��
2019/01/04,22:40,0.786,1.174,0.825,1.504,1.068,0.452,0.799,0.756,���쐼,6.6,��
2019/01/04,22:50,0.786,1.174,0.823,1.504,1.068,0.453,0.798,0.758,���쐼,6.1,��
2019/01/04,23:00,0.785,1.175,0.825,1.504,1.070,0.453,0.801,0.757,���쐼,6.0,��
2019/01/04,23:10,0.786,1.171,0.823,1.504,1.068,0.453,0.799,0.759,���쐼,6.3,��
2019/01/04,23:20,0.785,1.175,0.825,1.505,1.067,0.453,0.799,0.760,���쐼,5.9,��
2019/01/04,23:30,0.784,1.173,0.825,1.504,1.070,0.452,0.800,0.756,���쐼,5.8,��
2019/01/04,23:40,0.785,1.175,0.826,1.503,1.068,0.453,0.799,0.759,���쐼,4.7,��
2019/01/04,23:50,0.786,1.174,0.826,1.506,1.069,0.455,0.801,0.759,��,5.4,��
